Regional Weather Roundup
Issued by NWS Grand Forks, ND

Home | Current Version | Previous Version | Graphics & Text | Print | Product List | Glossary On
Versions: 1 2 3 4 5 6 7 8 9 10 11 12 13 14 15 16 17 18 19 20 21 22 23 24 25 26 27 28 29 30 31 32 33 34 35 36 37 38 39 40 41 42 43 44 45 46 47 48 49 50
157
ASUS43 KFGF 011410
RWRFGF
PRAIRIE TO PINES  WEATHER ROUNDUP
NATIONAL WEATHER SERVICE EASTERN NORTH DAKOTA/GRAND FORKS ND
900 AM CDT SAT OCT 01 2016

 **SATELLITE DATA USED TO AUGMENT SKY COVER AT AUTOMATED STATIONS**
 *****  WEATHER ACROSS EASTERN NORTH DAKOTA  *****

CITY           SKY/WX    TMP DP  RH WIND       PRES   REMARKS
GRAND FORKS    CLOUDY    52  48  86 SE9       30.15F
GRAND FRKS AFB CLOUDY    51  49  93 S7        30.15R
GRAND FRKS NWS   N/A     50 N/A N/A SE9         N/A
DEVILS LAKE    CLOUDY    56  49  77 SE12      30.10S
FARGO          MOSUNNY   57  50  77 SE10      30.15S
WAHPETON ARPT  CLOUDY    50  46  87 SE8       30.16S
$$

 ***** WEATHER ACROSS CENTRAL AND WESTERN NORTH DAKOTA  *****

CITY           SKY/WX    TMP DP  RH WIND       PRES   REMARKS
BISMARCK       SUNNY     55  46  71 E9        30.03R
MINOT          SUNNY     50  47  89 CALM      30.01S
JAMESTOWN      CLOUDY    52  48  86 SE13      30.10R
MINOT AFB      SUNNY     49  47  92 SE8       30.00F
GARRISON         N/A     53  48  83 SE7       30.00S
WILLISTON      CLEAR     50  46  86 CALM      29.98S
DICKINSON      SUNNY     50  45  83 SE3       29.97S
HETTINGER      SUNNY     50  45  83 CALM      30.01R
$$

 *****  OTHER AIRPORT OBSERVATIONS IN OUR AREA  *****

CITY           SKY/WX    TMP DP  RH WIND       PRES   REMARKS
WALHALLA       FAIR      50  50 100 SE8       30.14S
GRAFTON AIRPOR FAIR      50  50 100 SE9       30.17S
VALLEY CITY AR FAIR      52  52 100 SE10      30.14S
CANDO          FAIR      54  54 100 SE12      30.11S
CAVALIER APRT  FAIR      54  50  87 SE7       30.14S
GWINNER        FAIR      54  50  87 SE7       30.13F
SHEYENNE NWR     N/A     52  49  89 SE7       29.95
ROLLA            N/A     50  48  93 SE8       30.09F
 ***** THE ABOVE OBSERVATIONS ARE NON NWS ARE NOT QUALITY
       CONTROLLED AND MAY MIS-REPORT RAIN FOR SNOW...
$$

  *****  WEATHER ACROSS NORTHERN MINNESOTA  *****

CITY           SKY/WX    TMP DP  RH WIND       PRES   REMARKS
FLAG ISLAND    CLOUDY    54  48  82 SE10      30.20S
WARROAD        CLOUDY    52  46  82 SE3       30.21S
ROSEAU         MOSUNNY   52  46  82 CALM      30.20S
HALLOCK        MOSUNNY   54  50  87 SE8       30.16S
THF RVR FALLS  MOSUNNY   50  48  93 SE5       30.19S
BAUDETTE       MOSUNNY   49  46  90 SE7       30.21F
WASKISH        FOG       46  45  93 E3        30.21F VSB<1/4
CROOKSTON      PTSUNNY   54  50  87 SE8       30.18R
GREENBUSH NDAW   N/A     52  50  93 SE9         N/A
$$
  *****  WEATHER ACROSS CENTRAL AND WEST MINNESOTA  *****

CITY           SKY/WX    TMP DP  RH WIND       PRES   REMARKS
FOSSTON        MOSUNNY   52  48  87 E5        30.19S
BEMIDJI        FOG       49  49 100 S3        30.21S VSB 1/4
PARK RAPIDS    FOG       51  49  92 SE5       30.20F VSB 1/2
ELBOW LAKE     FOG       50  50 100 SE8       30.18S VSB 3/4
WADENA         FOG       50  48  93 E5        30.20S VSB 1/4
DETROIT LAKES  CLOUDY    48  48 100 SE6       30.19S
MOORHEAD       MOSUNNY   54  50  87 SE7       30.16S
FERGUS FALLS   MOSUNNY   52  52 100 E3        30.19S
MORRIS MN      FOG       52  52 100 E9        30.17S VSB 1/4
STAPLES        CLOUDY    50  50 100 CALM      30.21S FOG
$$
  *****  WEATHER ELSEWHERE ACROSS MINNESOTA  *****

CITY           SKY/WX    TMP DP  RH WIND       PRES   REMARKS
DULUTH         CLOUDY    53  51  93 E8        30.23S
INTRNTL FALLS  CLOUDY    49  48  97 SE5       30.23F
ELY            CLOUDY    50  46  87 E3        30.25S
CLOQUET        CLOUDY    52  50  93 E5        30.23S FOG
WHEATON        NOT AVBL
BRAINERD       FOG       48  48 100 E6        30.22S VSB 1/4
HIBBING        CLOUDY    45  45 100 CALM      30.24S
ALEXANDRIA     FOG       51  51 100 E8        30.20S VSB 1/4
SAINT CLOUD    PTSUNNY   54  52  93 NE6       30.20F
MINNEAPOLIS    SUNNY     57  51  80 NE8       30.18S
$$

  *****  WEATHER ACROSS SOUTH DAKOTA  *****

CITY           SKY/WX    TMP DP  RH WIND       PRES   REMARKS
SIOUX FALLS    CLOUDY    56  52  86 CALM      30.16F
BROOKINGS      SUNNY     54  51  90 SE3       30.15F
WATERTOWN      SUNNY     55  50  83 SE6       30.15F
HURON          MOSUNNY   55  50  83 S12       30.11S
SISSETON         N/A     52  48  86 S6        30.15S
ABERDEEN       MOSUNNY   56  50  80 SE13      30.10S
MITCHELL       SUNNY     51  48  89 SE9       30.13F
PIERRE         CLOUDY    58  45  62 SE14      30.01F
MOBRIDGE       CLOUDY    61  46  57 SE18      29.99S
RAPID CITY     SUNNY     56  50  80 CALM      30.01R
$$

  *****  SOME WEATHER IN NEARBY STATES *****

CITY           SKY/WX    TMP DP  RH WIND       PRES   REMARKS
GLASGOW MT     CLEAR     50  47  89 S5        29.95R
GREAT FALLS MT PTCLDY    64  41  42 S13       29.88R
CHEYENNE WY    SUNNY     53  41  63 W12       30.18S
SCOTTSBLUFF NE SUNNY     50  45  83 CALM      30.08S
OMAHA NE       CLOUDY    59  54  83 NW3       30.14F
DES MOINES IA  CLOUDY    61  58  90 N6        30.12S
DAVENPORT IA   CLOUDY    60  58  92 N7        30.06S
CHICAGO IL     LGT RAIN  60  58  92 N12       30.01S FOG
EAU CLAIRE WI  CLOUDY    55  52  89 NE6       30.17S
LA CROSSE WI   CLOUDY    62  55  77 N5        30.13S
$$

  *****  SOME NATIONAL WEATHER *****

CITY           SKY/WX    TMP DP  RH WIND       PRES   REMARKS
LA GUARDIA NY  CLOUDY    60  57  89 NE13      30.22S
RALEIGH NC     PTSUNNY   69  66  90 CALM      30.08S
ATLANTA GA     SUNNY     69  50  50 NW5       30.11R
NEW ORLEANS LA MOSUNNY   78  63  59 N8        30.09R
OKLAHOMA CITY  PTSUNNY   61  57  87 S5        30.11F
ALBUQUERQUE NM MOSUNNY   59  55  87 CALM      30.24R
SALT LAKE CITY PTCLDY    62  48  60 SE14      30.05S
LOS ANGELES CA CLEAR     66  61  84 CALM      29.98R
BOISE ID       MOCLDY    65  45  48 CALM      29.95R
SEATTLE WA     MOCLDY    52  45  77 SE7       29.93F
$$

*** WEATHER ACROSS MANITOBA...SASKATCHEWAN AND ONTARIO ***
                ***ONTARIO***

CITY           SKY/WX    TMP DP  RH WIND       PRES   REMARKS
GERALDTON      MOSUNNY   48  48 100 VRB2      30.30S
THUNDER BAY    MOSUNNY   50  48  93 SW3       30.27S
SIOUX LOOKOUT  PTSUNNY   52  48  87 S3        30.27F
TORONTO        LGT RAIN  55  54  94 E10G17    30.16F
BIG TROUT LK   PTSUNNY   54  50  87 SW8       30.21S
PICKLE LAKE    PTSUNNY   48  46  93 S5        30.28S
DRYDEN         SUNNY     54  46  76 SE3       30.26S
KENORA         PTSUNNY   52  48  87 SE8       30.23S
$$
                *** MANITOBA***

CITY           SKY/WX    TMP DP  RH WIND       PRES   REMARKS
BRANDON        PTSUNNY   52  48  87 E6        30.08S
DAUPHIN        SUNNY     55  54  94 SE2       30.07S
ISLAND LAKE    PTSUNNY   52  50  93 S6        30.15S
PILOT MOUND      N/A     54  48  82 SE12        N/A
THE PAS        FOG       50  50 100 N7        30.06R VSB 1/8
THOMPSON       CLOUDY    50  50 100 E7        30.12F
WINNIPEG       PTSUNNY   55  50  82 SE9       30.15S
LYNN LAKE      LGT RAIN  41  41 100 NE14G21   30.21R FOG
CHURCHILL      LGT RAIN  39  37  93 E7        30.40R
GILLAM         FOG       45  45 100 NE8       30.18S VSB 1/4
$$
                ***SASKATCHEWAN***

CITY           SKY/WX    TMP DP  RH WIND       PRES   REMARKS
ESTEVAN        PTCLDY    46  45  93 E9        30.00S
KINDERSLEY     DRZL/FOG  48  48 100 NE13G20   29.99F VSB 1/8
LLOYDMINSTER   DRIZZLE   46  45  93 E10       30.09R FOG
PRINCE ALBERT  CLOUDY    50  48  93 E12       30.06F FOG
REGINA         PTCLDY    50  46  87 SE8       30.00S
YORKTON        CLEAR     48  46  93 SE5       30.03F
N. BATTLEFORD  CLOUDY    50  50 100 E8        30.06R
LA RONGE       CLOUDY    48  45  87 NE17      30.15S
SASKATOON      FOG       50  50 100 NE14      30.05S VSB 1
SWIFT CURRENT  MOCLDY    46  46 100 E9        29.95F FOG
$$
NOTE: THESE ARE AUTOMATED STATIONS WITH LIMITED QUALITY CONTROL
      "FAIR" INDICATES FEW OR NO CLOUDS BELOW 12,000 FEET WITH NO
      SIGNIFICANT WEATHER AND/OR OBSTRUCTIONS TO VISIBILITY.
      SKY/WX - SKY CONDITION AND SIGNIFICANT WEATHER.
      TMP - AIR TEMPERATURE.    DP   - DEWPOINT TEMPERATURE.
      RH  - RELATIVE HUMIDITY.  PRES - PRESSURE.
      HX  - HEAT INDEX.         WCI  - WIND CHILL INDEX.
$




USA.gov is the U.S. government's official web portal to all federal, state and local government web resources and services.